This is the latest recevied weather packets stored in our database for station/object KC4GS-13. If no packets are shown the sender has not sent any weather packets the latest 10 day(s).
| Time | Temp. | Humidity | Pressure | Rain* | Wind** | Luminosity | Snow |
|---|---|---|---|---|---|---|---|
| 1788101843 | 27.78° C | 78% | 1024 hPa | 0 mm | - | 154 W/m² | - |
| 1788101538 | 27.78° C | 79% | 1023.7 hPa | 0 mm | - | 286 W/m² | - |
| 1788101238 | 27.78° C | 81% | 1023.9 hPa | 0 mm | - | 223 W/m² | - |
| 1788100934 | 27.22° C | 82% | 1023.7 hPa | 0 mm | - | 178 W/m² | - |
| 1788100631 | 27.22° C | 82% | 1023.8 hPa | 0 mm | - | 99 W/m² | - |
| 1788100328 | 27.22° C | 82% | 1024 hPa | 0 mm | - | 129 W/m² | - |
| 1788100024 | 26.67° C | 83% | 1023.7 hPa | 0 mm | - | 137 W/m² | - |
| 1788099719 | 26.67° C | 84% | 1023.8 hPa | 0 mm | - | 116 W/m² | - |
| 1788099414 | 26.67° C | 85% | 1023.8 hPa | 0 mm | - | 114 W/m² | - |
| 1788099109 | 26.67° C | 87% | 1023.8 hPa | 0 mm | - | 121 W/m² | - |
| 1788098804 | 26.11° C | 89% | 1023.7 hPa | 0 mm | - | 125 W/m² | - |
| 1788098498 | 25.56° C | 91% | 1023.7 hPa | 0 mm | - | 109 W/m² | - |
| 1788098193 | 25.56° C | 93% | 1023.9 hPa | 0 mm | - | 367 W/m² | - |
| 1788097888 | 25° C | 95% | 1023.9 hPa | 0 mm | - | 165 W/m² | - |
| 1788097584 | 25° C | 96% | 1024 hPa | 0 mm | - | 173 W/m² | - |
| 1788097279 | 24.44° C | 96% | 1024 hPa | 0 mm | - | 144 W/m² | - |
| 1788096975 | 24.44° C | 97% | 1023.9 hPa | 0 mm | - | 80 W/m² | - |
| 1788096670 | 23.89° C | 97% | 1023.9 hPa | 0 mm | - | 67 W/m² | - |
| 1788096366 | 23.89° C | 98% | 1024 hPa | 0 mm | - | 98 W/m² | - |
| 1788096061 | 23.89° C | 98% | 1023.9 hPa | 0 mm | - | 75 W/m² | - |
| 1788095760 | 23.89° C | 98% | 1023.9 hPa | 0 mm | - | 103 W/m² | - |
| 1788095455 | 23.89° C | 98% | 1024.1 hPa | 0 mm | - | 117 W/m² | - |
| 1788095149 | 23.89° C | 98% | 1023.8 hPa | 0 mm | - | 65 W/m² | - |
| 1788094845 | 23.89° C | 98% | 1023.9 hPa | 0 mm | - | 100 W/m² | - |
| 1788094540 | 23.89° C | 98% | 1023.7 hPa | 0 mm | - | 98 W/m² | - |
* Rain latest hour (hover to see other rain measurements)
** Current wind speed in m/s (hover to see current wind gust speed)